Hourly Weather Roundup
Issued by NWS

Home | Current Version | Previous Version | Text Only | Print | Product List | Glossary On
Versions: 1 2 3 4 5 6 7 8 9 10 11 12 13 14 15 16 17 18 19 20 21 22 23 24 25 26 27 28 29 30 31 32 33 34 35 36 37 38 39 40 41 42 43 44 45 46 47 48 49 50
273
NZUS43 KILX 010210
HWRCRS

CRS HOURLY WEATHER ROUNDUP
NATIONAL WEATHER SERVICE, LINCOLN IL
900 PM CDT SAT APR 30 2016


CITY           SKY/WX    TMP DP  RH WIND       PRES   REMARKS
CHAMPAIGN      FOG       59  59 100 SE5       29.83R VSB 3/4
LAWRENCEVILLE  CLOUDY    66  65  96 S10       29.84R
PEORIA         CLOUDY    51  50  96 NE13      29.85R
SPRINGFIELD    MOCLDY    63  62  97 NE6       29.80R FOG
$$


CITY           SKY/WX    TMP DP  RH WIND       PRES   REMARKS
BLOOMINGTON    FOG       54  54 100 NE9       29.84R VSB 3/4
DECATUR        FOG       57  56  96 E3        29.83R VSB 1/2
EFFINGHAM      CLOUDY    66  65  96 SE5       29.84R
FLORA          CLOUDY    68  64  85 SW5       29.85R
GALESBURG      CLOUDY    47  47  97 NE14      29.86S FOG
JACKSONVILLE   CLOUDY    64  61  91 N13       29.80R
LACON          CLOUDY    48  47  95 NE7       29.86R
LINCOLN        PTCLDY    61  61 100 CALM      29.81R FOG
LITCHFIELD     CLOUDY    64  50  60 S9        29.78

CITY           SKY/WX    TMP DP  RH WIND       PRES   REMARKS
MACOMB         CLOUDY    52  52 100 NE13      29.86R FOG
MATTOON        CLOUDY    64  61  90 S3        29.83R
MOLINE         CLOUDY    47  43  86 E17       29.89R
OLNEY          LGT RAIN  66  63  88 S6        29.84R
PARIS          CLOUDY    63  62  97 SE5       29.84R
PONTIAC        CLOUDY    50  50  99 NE17      29.87R
QUINCY         PTCLDY    59  57  93 CALM      29.78F
RANTOUL        CLOUDY    60  60  99 SE5       29.83R FOG
ROBINSON       CLOUDY    64  63  94 S8        29.84S
TAYLORVILLE    CLOUDY    64  63  94 S8        29.80F
TERRE HAUTE    CLOUDY    65  61  87 S5        29.84R
$$


CITY           SKY/WX    TMP DP  RH WIND       PRES   REMARKS
BURLINGTON     CLOUDY    48  48 100 NE15      29.83S FOG
CHICAGO        LGT RAIN  45  44  97 NE15      29.93S FOG
DES MOINES     DRIZZLE   48  44  86 E13G23    29.86R FOG
EVANSVILLE     CLOUDY    67  64  90 CALM      29.86R
INDIANAPOLIS   CLOUDY    61  59  93 S8        29.85R
KANSAS CITY    MOCLDY    59  48  67 N3        29.80R
MILWAUKEE      RAIN      42  40  92 N15       30.01F FOG     WCI  34
ST LOUIS       MOCLDY    62  53  72 SE8       29.80R
$$





USA.gov is the U.S. government's official web portal to all federal, state and local government web resources and services.